Theta_e
319 316 316 317 317 314 315 318 318 319 319 319 319 319 315 314 314 314 315 314 314 315
319 318 317 317 319 319 317 319 319 320 319 320 320 320 317 314 313 314 311 311 312 313
318 319 318 318 317 318 318 319 320 320 319 318 317 318 317 314 315 311 310 310 310 312
318 319 319 318 318 319 319 320 320 320 319 317 317 317 314 311 314 313 309 309 310 312
318 318 318 318 319 317 316 316 316 316 315 315 314 311 312 314 315 311 308 309 310 312
318 318 317 315 314 317 314 311 312 312 312 313 313 312 310 310 310 310 311 310 309 309
315 314 315 314 314 313 312 311 310 310 311 311 311 307 307 307 309 309 309 309 309 309
315 315 315 314 312 311 310 309 310 310 309 309 305 305 305 305 306 306 304 306 308 308
315 312 310 309 308 308 307 308 308 307 308 306 306 303 304 304 303 302 303 303 305 306
310 309 308 306 306 305 303 304 303 304 305 304 300 301 300 303 299 300 301 301 301 304
307 305 305 304 304 302 302 302 302 303 303 302 301 300 299 300 299 299 299 300 300 301
305 304 304 302 301 301 301 301 301 302 301 300 298 300 299 297 296 297 296 298 298 303
305 303 301 301 301 301 301 302 302 302 301 303 298 299 298 297 296 294 296 297 299 303
302 301 301 301 300 300 301 298 295 299 299 297 298 297 298 298 295 294 295 297 300 302
Wind_Speed
4 3 4 4 3 3 3 1 2 3 3 3 3 1 3 2 4 5 5 8 7 4
6 6 4 4 4 3 2 1 4 6 6 6 6 5 3 2 4 3 3 5 6 5
5 5 4 4 2 2 4 5 6 7 6 7 5 5 6 5 4 4 5 4 7 6
6 5 6 5 6 5 5 6 7 6 6 6 6 7 6 7 4 5 6 7 6 7
7 6 7 7 7 6 6 6 6 7 6 6 6 6 6 7 6 6 6 7 8 7
8 8 9 6 6 5 5 6 6 6 7 7 6 6 6 6 6 7 8 9 7 7
9 8 5 5 5 5 4 4 4 4 5 6 5 5 6 6 7 7 9 8 7 7
6 5 5 5 3 5 6 5 5 5 5 6 5 4 4 5 6 5 7 7 6 7
6 6 4 6 7 7 5 4 4 5 5 4 3 6 8 6 6 6 6 6 7 7
6 8 7 7 7 6 5 5 6 5 4 4 3 6 9 12 5 6 6 6 5 6
9 7 6 7 5 3 3 3 4 5 5 3 2 5 7 12 7 6 6 6 6 5
7 7 7 6 5 4 4 4 4 3 4 4 3 3 6 7 6 5 7 9 7 4
7 7 6 4 3 2 2 3 3 4 3 6 3 1 5 6 4 6 6 7 6 7
4 5 5 3 2 1 3 5 6 5 4 4 2 2 5 6 4 4 5 5 6 6
Wind_Direction
85 107 97 76 58 74 85 97 16 358 336 317 313 61 31 358 343 358 354 346 343 314
79 105 103 84 69 105 76 6 354 341 331 323 8 351 351 327 328 20 352 334 338 328
143 137 119 80 54 14 7 19 8 354 356 351 357 9 351 336 342 26 349 342 345 332
185 163 142 88 64 52 33 19 6 355 348 343 6 4 356 343 357 19 355 342 341 327
164 134 100 83 70 65 47 34 19 13 16 7 359 345 335 344 359 3 350 329 341 319
85 79 79 77 69 51 56 30 16 3 343 330 327 353 10 0 356 355 335 340 330 323
92 93 90 99 89 54 38 29 2 343 331 327 328 50 21 3 350 346 338 330 318 321
103 103 100 91 57 48 43 27 8 355 349 3 58 39 18 353 327 323 325 321 322 329
127 120 111 59 63 48 31 9 8 13 23 48 54 7 5 352 314 338 329 326 334 329
117 86 83 76 65 51 31 11 353 15 20 53 64 13 356 349 334 338 337 348 344 342
91 96 83 77 76 39 12 350 330 347 333 62 86 22 356 352 339 345 352 347 340 351
92 85 84 69 38 13 10 354 346 349 29 42 147 38 9 5 344 350 347 333 327 343
87 101 98 78 15 356 22 331 333 333 61 79 139 298 16 11 345 352 337 323 332 316
92 102 103 73 36 23 8 18 359 338 53 71 130 284 345 39 17 328 316 314 335 331